When you browse on this site, cookies collect data to enhance your experience and personalize the content and advertising you see.
Visit our Privacy Policy to learn more. By continuing to use the site, you agree to this use of cookies and data.
  • In Österreich
  • Länderverzeichnis
  • Für 7 Tage
  • Wassertemperatur
  • Wetterkarte
  • News
  • Widgets
  • user-avatar
    Anmelden

    Stündliche Wetter Quipile

    Heute, 17 September, Dienstag

    Zeit Temperatur Niederschläge Wind Luftdruck Luftfeuchtigkeit
    00:00 +14°C° 0.4 mm 1 m/S 597 mmHg 84%
    01:00 +14°C° 0.4 mm 1 m/S 597 mmHg 85%
    02:00 +14°C° 0.6 mm 1 m/S 597 mmHg 86%
    03:00 +13°C° 0.6 mm 1 m/S 596 mmHg 86%
    04:00 +13°C° 0.6 mm 1 m/S 596 mmHg 87%
    05:00 +14°C° 0.4 mm 1 m/S 597 mmHg 86%
    06:00 +14°C° 0.4 mm 1 m/S 597 mmHg 84%
    07:00 +15°C° 0.4 mm 1 m/S 598 mmHg 83%
    08:00 +16°C° 0.4 mm 1 m/S 599 mmHg 78%
    09:00 +19°C° 0.4 mm 1 m/S 599 mmHg 73%
    10:00 +21°C° 0.4 mm 1 m/S 600 mmHg 68%
    11:00 +22°C° 0.5 mm 1 m/S 599 mmHg 64%
    12:00 +21°C° 0.5 mm 2 m/S 599 mmHg 61%
    13:00 +23°C° 0.5 mm 2 m/S 599 mmHg 57%
    14:00 +23°C° 0.3 mm 2 m/S 599 mmHg 55%
    15:00 +24°C° 0.3 mm 1 m/S 598 mmHg 54%
    16:00 +24°C° 0.3 mm 1 m/S 598 mmHg 52%
    17:00 +21°C° 0.6 mm 2 m/S 598 mmHg 61%
    18:00 +18°C° 0.6 mm 2 m/S 597 mmHg 69%
    19:00 +16°C° 0.6 mm 2 m/S 597 mmHg 78%
    20:00 +16°C° 0.9 mm 2 m/S 597 mmHg 80%
    21:00 +16°C° 0.9 mm 2 m/S 597 mmHg 82%
    22:00 +15°C° 0.9 mm 1 m/S 598 mmHg 84%
    23:00 +15°C° 0.9 mm 1 m/S 597 mmHg 86%

    Morgen, 18 September, Mittwoch

    Zeit Temperatur Niederschläge Wind Luftdruck Luftfeuchtigkeit
    00:00 +14°C° 0.9 mm 1 m/S 597 mmHg 89%
    01:00 +14°C° 0.9 mm 1 m/S 597 mmHg 91%
    02:00 +14°C° 1.8 mm 1 m/S 596 mmHg 93%
    03:00 +13°C° 1.8 mm 0 m/S 596 mmHg 95%
    04:00 +12°C° 1.8 mm 0 m/S 596 mmHg 97%
    05:00 +12°C° 3.8 mm 0 m/S 596 mmHg 96%
    06:00 +13°C° 3.8 mm 1 m/S 597 mmHg 96%
    07:00 +13°C° 3.8 mm 1 m/S 597 mmHg 95%
    08:00 +14°C° 0.5 mm 1 m/S 597 mmHg 93%
    09:00 +14°C° 0.5 mm 1 m/S 598 mmHg 90%
    10:00 +14°C° 0.5 mm 0 m/S 598 mmHg 88%
    11:00 +16°C° 0 mm 1 m/S 598 mmHg 80%
    12:00 +19°C° 0 mm 1 m/S 598 mmHg 72%
    13:00 +20°C° 0 mm 1 m/S 598 mmHg 64%
    14:00 +20°C° 0 mm 1 m/S 597 mmHg 65%
    15:00 +20°C° 0 mm 1 m/S 597 mmHg 66%
    16:00 +20°C° 0 mm 1 m/S 596 mmHg 66%
    17:00 +19°C° 0.3 mm 1 m/S 596 mmHg 71%
    18:00 +16°C° 0.3 mm 1 m/S 596 mmHg 76%
    19:00 +15°C° 0.3 mm 1 m/S 596 mmHg 82%
    20:00 +15°C° 0.4 mm 1 m/S 596 mmHg 82%
    21:00 +15°C° 0.4 mm 1 m/S 596 mmHg 83%
    22:00 +15°C° 0.4 mm 1 m/S 597 mmHg 84%
    23:00 +14°C° 0.1 mm 1 m/S 597 mmHg 84%

    übermorgen, 19 September, Donnerstag

    Zeit Temperatur Niederschläge Wind Luftdruck Luftfeuchtigkeit
    00:00 +14°C° 0.1 mm 1 m/S 596 mmHg 85%
    01:00 +14°C° 0.1 mm 1 m/S 596 mmHg 85%
    02:00 +14°C° 0 mm 1 m/S 596 mmHg 85%
    03:00 +14°C° 0 mm 1 m/S 596 mmHg 85%
    04:00 +14°C° 0 mm 1 m/S 596 mmHg 85%
    05:00 +14°C° 0 mm 1 m/S 596 mmHg 85%
    06:00 +14°C° 0 mm 1 m/S 597 mmHg 85%
    07:00 +13°C° 0 mm 0 m/S 597 mmHg 85%
    08:00 +15°C° 0.1 mm 1 m/S 598 mmHg 81%
    09:00 +18°C° 0.1 mm 1 m/S 598 mmHg 76%
    10:00 +19°C° 0.1 mm 1 m/S 599 mmHg 72%
    11:00 +20°C° 0.5 mm 1 m/S 598 mmHg 71%
    12:00 +20°C° 0.5 mm 1 m/S 598 mmHg 71%
    13:00 +21°C° 0.5 mm 1 m/S 598 mmHg 71%
    14:00 +20°C° 0.8 mm 1 m/S 597 mmHg 72%
    15:00 +20°C° 0.8 mm 1 m/S 597 mmHg 73%
    16:00 +20°C° 0.8 mm 1 m/S 596 mmHg 74%
    17:00 +19°C° 0.8 mm 1 m/S 596 mmHg 79%
    18:00 +18°C° 0.8 mm 1 m/S 596 mmHg 83%
    19:00 +15°C° 0.8 mm 1 m/S 596 mmHg 88%
    20:00 +15°C° 0.6 mm 1 m/S 596 mmHg 88%
    21:00 +15°C° 0.6 mm 1 m/S 597 mmHg 87%
    22:00 +14°C° 0.6 mm 1 m/S 597 mmHg 87%
    23:00 +14°C° 0.4 mm 1 m/S 597 mmHg 88%

    20 September, Freitag

    Zeit Temperatur Niederschläge Wind Luftdruck Luftfeuchtigkeit
    00:00 +14°C° 0.4 mm 1 m/S 597 mmHg 89%
    01:00 +14°C° 0.4 mm 1 m/S 596 mmHg 90%
    02:00 +14°C° 0.1 mm 1 m/S 596 mmHg 91%
    03:00 +13°C° 0.1 mm 1 m/S 596 mmHg 92%
    04:00 +13°C° 0.1 mm 1 m/S 596 mmHg 92%
    05:00 +13°C° 0.1 mm 1 m/S 597 mmHg 91%
    06:00 +14°C° 0.1 mm 1 m/S 597 mmHg 90%
    07:00 +14°C° 0.1 mm 1 m/S 598 mmHg 89%
    08:00 +16°C° 0.4 mm 1 m/S 599 mmHg 84%
    09:00 +18°C° 0.4 mm 1 m/S 599 mmHg 79%
    10:00 +18°C° 0.4 mm 2 m/S 600 mmHg 74%
    11:00 +19°C° 1.3 mm 2 m/S 600 mmHg 74%
    12:00 +20°C° 1.3 mm 1 m/S 599 mmHg 73%
    13:00 +20°C° 1.3 mm 1 m/S 599 mmHg 72%
    14:00 +20°C° 1.6 mm 1 m/S 598 mmHg 75%
    15:00 +19°C° 1.6 mm 1 m/S 598 mmHg 77%
    16:00 +19°C° 1.6 mm 1 m/S 597 mmHg 79%
    17:00 +18°C° 1.3 mm 1 m/S 597 mmHg 82%
    18:00 +16°C° 1.3 mm 1 m/S 597 mmHg 85%
    19:00 +15°C° 1.3 mm 1 m/S 597 mmHg 88%
    20:00 +15°C° 0.5 mm 1 m/S 597 mmHg 89%
    21:00 +14°C° 0.5 mm 1 m/S 598 mmHg 90%
    22:00 +14°C° 0.5 mm 1 m/S 598 mmHg 91%
    23:00 +14°C° 0.1 mm 1 m/S 598 mmHg 90%

    21 September, Samstag

    Zeit Temperatur Niederschläge Wind Luftdruck Luftfeuchtigkeit
    00:00 +14°C° 0.1 mm 1 m/S 597 mmHg 89%
    01:00 +13°C° 0.1 mm 1 m/S 597 mmHg 89%
    02:00 +13°C° 0 mm 1 m/S 597 mmHg 89%
    03:00 +13°C° 0 mm 1 m/S 597 mmHg 89%
    04:00 +12°C° 0 mm 0 m/S 597 mmHg 89%
    05:00 +12°C° 0 mm 0 m/S 597 mmHg 87%
    06:00 +13°C° 0 mm 0 m/S 598 mmHg 85%
    07:00 +13°C° 0 mm 0 m/S 599 mmHg 84%
    08:00 +15°C° 0.2 mm 0 m/S 599 mmHg 78%
    09:00 +19°C° 0.2 mm 1 m/S 600 mmHg 72%
    10:00 +21°C° 0.2 mm 1 m/S 600 mmHg 66%
    11:00 +22°C° 0.3 mm 1 m/S 600 mmHg 62%
    12:00 +23°C° 0.3 mm 1 m/S 600 mmHg 58%
    13:00 +23°C° 0.3 mm 2 m/S 599 mmHg 54%
    14:00 +23°C° 0.7 mm 1 m/S 599 mmHg 57%
    15:00 +22°C° 0.7 mm 1 m/S 598 mmHg 60%
    16:00 +22°C° 0.7 mm 1 m/S 597 mmHg 63%
    17:00 +20°C° 0.7 mm 1 m/S 597 mmHg 68%
    18:00 +18°C° 0.7 mm 1 m/S 597 mmHg 74%
    19:00 +16°C° 0.7 mm 1 m/S 596 mmHg 79%
    20:00 +15°C° 0.7 mm 1 m/S 597 mmHg 81%
    21:00 +15°C° 0.7 mm 1 m/S 597 mmHg 82%
    22:00 +14°C° 0.7 mm 1 m/S 597 mmHg 83%
    23:00 +14°C° 1.2 mm 1 m/S 597 mmHg 84%

    22 September, Sonntag

    Zeit Temperatur Niederschläge Wind Luftdruck Luftfeuchtigkeit
    00:00 +13°C° 1.2 mm 1 m/S 597 mmHg 86%
    01:00 +13°C° 1.2 mm 1 m/S 596 mmHg 87%
    02:00 +13°C° 0.8 mm 1 m/S 596 mmHg 88%
    03:00 +13°C° 0.8 mm 1 m/S 596 mmHg 88%
    04:00 +13°C° 0.8 mm 1 m/S 596 mmHg 88%
    05:00 +13°C° 0.5 mm 1 m/S 597 mmHg 87%
    06:00 +13°C° 0.5 mm 0 m/S 598 mmHg 86%
    07:00 +13°C° 0.5 mm 0 m/S 598 mmHg 85%
    08:00 +16°C° 0.6 mm 1 m/S 599 mmHg 80%
    09:00 +18°C° 0.6 mm 1 m/S 600 mmHg 76%
    10:00 +20°C° 0.6 mm 1 m/S 600 mmHg 71%
    11:00 +20°C° 0.6 mm 1 m/S 600 mmHg 69%
    12:00 +21°C° 0.6 mm 1 m/S 599 mmHg 66%
    13:00 +22°C° 0.6 mm 1 m/S 599 mmHg 63%
    14:00 +22°C° 0.3 mm 1 m/S 598 mmHg 64%
    15:00 +21°C° 0.3 mm 1 m/S 598 mmHg 65%
    16:00 +21°C° 0.3 mm 1 m/S 598 mmHg 66%
    17:00 +19°C° 0.3 mm 1 m/S 597 mmHg 71%
    18:00 +18°C° 0.3 mm 1 m/S 597 mmHg 77%
    19:00 +15°C° 0.3 mm 1 m/S 597 mmHg 82%
    20:00 +15°C° 0.5 mm 1 m/S 597 mmHg 82%
    21:00 +14°C° 0.5 mm 1 m/S 597 mmHg 82%
    22:00 +14°C° 0.5 mm 1 m/S 598 mmHg 83%
    23:00 +13°C° 0.7 mm 1 m/S 597 mmHg 84%
    Mehr zeigen